Rochester, MN
on Sunday, September 8, 2013

Sunday
Previous Day Next Day
Daily Summary
 ActualAverageRecord
Temperature
Mean Temperature °F 64°F  
Max Temperature 76°F 74°F 97°F (1931)
Min Temperature 67°F 54°F 37°F (1995)
Degree Days
Heating Degree Days 0 3  
Month to date heating degree days 13 21  
Since 1 July heating degree days 47 59  
Cooling Degree Days 7 3  
Month to date cooling degree days 44 24  
Year to date cooling degree days 600 549  
Growing Degree Days20 (Base °F )  
Moisture
Dew Point 64°F   
Average Humidity 79    
Maximum Humidity 90    
Minimum Humidity 68    
Precipitation
Precipitation 0.00 in 0.12 in 1.09 in (1985)
Month to date precipitation 0.01 0.97  
Year to date precipitation 34.71 25.16  
Snow
Snow 0.00 in 0.00 in 0.00 in (2012)
Month to date snowfall 0.0 0.0  
Since 1 July snowfall 0.0 0.0  
Snow Depth 0.00 in   
Wind
Wind Speed 11 mph   
Max Wind Speed 17 mph   
Max Gust Speed 22 mph   
Visibility 9 miles   
Events     

Key: T is trace of precipitation, MM is missing value
Source: NWS Daily Summary
Time(CDT)TemperatureDew PointHumidity Pressure Visibility Wind DirectionWind SpeedGust SpeedPrecipitationEvents Conditions
12:54 AM 72.0°F 66.9°F 84% 29.99 in 10.0 miles NE 10.4 mph - N/A   Clear
1:54 AM 70.0°F 66.0°F 87% 30.00 in 10.0 miles NE 9.2 mph - N/A   Clear
2:54 AM 69.1°F 66.0°F 90% 30.00 in 10.0 miles ENE 10.4 mph - N/A   Clear
3:54 AM 68.0°F 64.9°F 90% 29.99 in 9.0 miles ENE 10.4 mph - N/A   Clear
4:15 AM 69.8°F 64.4°F 83% 30.02 in 9.0 miles ENE 11.5 mph - N/A   Mostly Cloudy
4:54 AM 70.0°F 64.9°F 84% 29.99 in 10.0 miles East 11.5 mph - N/A   Overcast
5:54 AM 70.0°F 64.9°F 84% 29.99 in 10.0 miles ENE 10.4 mph - N/A   Overcast
6:19 AM 69.8°F 64.4°F 83% 30.02 in 7.0 miles East 15.0 mph - N/A   Overcast
6:54 AM 68.0°F 64.9°F 90% 30.01 in 7.0 miles East 16.1 mph 21.9 mph N/A   Overcast
7:54 AM 66.9°F 63.0°F 87% 30.02 in 10.0 miles East 15.0 mph - N/A   Overcast
8:54 AM 66.9°F 62.1°F 84% 30.03 in 10.0 miles East 12.7 mph - N/A   Overcast
9:54 AM 68.0°F 61.0°F 78% 30.06 in 10.0 miles East 10.4 mph - N/A   Overcast
10:54 AM 71.1°F 61.0°F 70% 30.05 in 10.0 miles East 13.8 mph - N/A   Overcast
11:39 AM 73.4°F 62.6°F 69% 30.06 in 10.0 miles ESE 10.4 mph - N/A   Scattered Clouds
11:54 AM 73.0°F 62.1°F 68% 30.03 in 10.0 miles ESE 11.5 mph - N/A   Partly Cloudy
12:54 PM 73.9°F 63.0°F 68% 30.01 in 10.0 miles East 13.8 mph - N/A   Partly Cloudy
1:51 PM 75.2°F 64.4°F 69% 30.03 in 10.0 miles ESE 9.2 mph - N/A   Mostly Cloudy
1:54 PM 75.0°F 64.0°F 69% 30.01 in 10.0 miles East 10.4 mph - N/A   Mostly Cloudy
2:54 PM 71.1°F 63.0°F 75% 29.96 in 10.0 miles ESE 16.1 mph - N/A   Mostly Cloudy
3:13 PM 71.6°F 62.6°F 73% 29.99 in 10.0 miles ESE 11.5 mph - N/A   Scattered Clouds
3:24 PM 71.6°F 62.6°F 73% 29.98 in 10.0 miles ESE 12.7 mph - N/A   Mostly Cloudy
3:54 PM 71.1°F 63.0°F 75% 29.96 in 9.0 miles ESE 12.7 mph - N/A   Overcast
4:54 PM 72.0°F 64.0°F 76% 29.94 in 9.0 miles ESE 11.5 mph - N/A   Overcast
5:54 PM 70.0°F 63.0°F 78% 29.94 in 8.0 miles SSE 15.0 mph 19.6 mph N/A   Overcast
6:28 PM 69.8°F 62.6°F 78% 29.96 in 8.0 miles SE 8.1 mph - N/A   Overcast
6:54 PM 69.1°F 63.0°F 81% 29.95 in 8.0 miles SE 9.2 mph - N/A   Overcast
7:54 PM 69.1°F 63.0°F 81% 29.94 in 10.0 miles SE 6.9 mph - N/A   Overcast
8:54 PM 68.0°F 63.0°F 84% 29.95 in 10.0 miles SE 6.9 mph - N/A   Overcast
9:19 PM 68.0°F 62.6°F 83% 29.95 in 10.0 miles ESE 5.8 mph - N/A   Overcast
9:54 PM 68.0°F 63.0°F 84% 29.94 in 9.0 miles ESE 8.1 mph - N/A   Overcast
10:54 PM 68.0°F 63.0°F 84% 29.93 in 9.0 miles ESE 9.2 mph - N/A   Overcast
11:28 PM 68.0°F 64.4°F 88% 29.93 in 9.0 miles ESE 9.2 mph - N/A   Overcast
11:54 PM 68.0°F 64.0°F 87% 29.91 in 9.0 miles SE 9.2 mph - N/A   Overcast
Astronomy
Sunrise:06:41 AM (CDT) Moon Rise:10:08 AM (CDT)9/8
Sunset:07:32 PM (CDT) Moon Set:08:59 PM (CDT)9/8
Moon Phase
Sep. 08 Sep. 12 Sep. 19 Sep. 27 Oct. 05

Copyright © 2015 The Weather Underground, Inc.